パンスターズ彗星

469P/PanSTARRS (2016)

English version
Home page
Updated on October 5, 2023

---------------------------------------------------------------------

・ プロフィール

符号 469P/2015 XG422
発見日 2015年12月13日
発見光度 22.4等
発見者 Pan-STARRS 1 telescope (Haleakala)

・ 軌道要素

Epoch 2016 Nov. 28.0 TT = JDT 2457720.5                                         
T 2016 Dec. 2.09590 TT                                  Rudenko                 
q   2.9905401            (2000.0)            P               Q                  
n   0.10928995     Peri.   43.61647     -0.73531607     +0.67769681             
a   4.3326062      Node   178.98612     -0.67687588     -0.73391482             
e   0.3097595      Incl.   20.19517     -0.03390156     -0.04578295             
P   9.02                                                                        
>From 71 observations 2010 Sept. 13-2017 June 5, mean residual 0".3.             

・ 光度変化

        H = 15.0  G = 0.15

---------------------------------------------------------------------

軌道要素はM.P.E.C. 2023-P35に掲載されたものです。
光度グラフはComet for Windowsで作成したものです。

---------------------------------------------------------------------

Copyright(C) Seiichi Yoshida (comet@aerith.net). All rights reserved.